Hickory, NC

12:40 AM EDT on October 24, 2017 (GMT -0400)
Hickory Regional

Weather History for KHKY - February, 2014

Change the Weather History Date:

Thursday, February 13, 2014

  Actual Average Record
Temperature  
Mean Temperature 36 °F -  
Max Temperature 43 °F 49 °F 73 °F (1951)
Min Temperature 28 °F 30 °F 8 °F (1955)
Degree Days  
Heating Degree Days 30    
Moisture  
Dew Point 28 °F    
Average Humidity 82    
Maximum Humidity 93    
Minimum Humidity 49    
Precipitation  
Precipitation 0.58 in - - ()
Sea Level Pressure  
Sea Level Pressure 29.62 in    
Wind  
Wind Speed 6 mph (NW)    
Max Wind Speed 15 mph    
Max Gust Speed 23 mph    
Visibility 5 miles    
Events Snow    
Averages and records for this station are not official NWS values.
T = Trace of Precipitation, MM = Missing Value Source: NWS Daily Summary

Daily Weather History Graph

Daily Weather History Graph

Search for Another Location

Airport or City:

Trip Planner

Search our weather history database for the weather conditions in past years. The results will help you decide how hot, cold, wet, or windy it might be!

Date:

Astronomy

Feb. 13, 2014 Rise Set
Actual Time 7:14 AM EST 6:05 PM EST
Civil Twilight 6:48 AM EST 6:31 PM EST
Nautical Twilight 6:18 AM EST 7:01 PM EST
Astronomical Twilight 5:48 AM EST 7:31 PM EST
Moon 5:12 PM EST (2/13) 6:06 AM EST (2/13)
Length of Visible Light 11h 43m
Length of Day
10h 50m
Waxing Gibbous, 98% of the Moon is Illuminated
Feb 13
Waxing Gibbous
Feb 14
Full
Feb 22
Last Quarter
Mar 1
New
Mar 8
First Quarter

Hourly Weather History & Observations

Time (EST) Temp. Windchill Dew Point Humidity Pressure Visibility Wind Dir Wind Speed Gust Speed Precip Events Conditions
12:27 AM 28.4 °F 23.3 °F 26.6 °F 93% 29.80 in 2.5 mi NNW 4.6 mph - N/A Snow Light Snow
12:37 AM 28.4 °F 22.2 °F 26.6 °F 93% 29.79 in 4.0 mi NNW 5.8 mph - N/A Snow Light Snow
12:53 AM 28.9 °F 23.9 °F 26.1 °F 89% 29.78 in 6.0 mi NNW 4.6 mph - N/A Snow Light Snow
1:22 AM 30.2 °F 26.7 °F 26.6 °F 86% 29.75 in 3.0 mi North 3.5 mph - N/A   Overcast
1:53 AM 30.0 °F 22.4 °F 27.0 °F 88% 29.74 in 4.0 mi North 8.1 mph - N/A   Overcast
2:10 AM 30.2 °F 25.4 °F 28.4 °F 93% 29.73 in 3.0 mi North 4.6 mph - N/A Snow Light Snow
2:21 AM 30.2 °F 24.3 °F 28.4 °F 93% 29.73 in 2.5 mi North 5.8 mph - N/A Snow Light Snow
2:30 AM 30.2 °F 26.7 °F 28.4 °F 93% 29.72 in 3.0 mi North 3.5 mph - N/A Snow Light Snow
2:51 AM 30.2 °F 24.3 °F 28.4 °F 93% 29.70 in 4.0 mi North 5.8 mph - N/A Snow Light Snow
2:53 AM 30.0 °F 23.2 °F 28.0 °F 92% 29.70 in 5.0 mi North 6.9 mph - N/A   Overcast
3:46 AM 30.2 °F 23.4 °F 26.6 °F 86% 29.65 in 4.0 mi NNE 6.9 mph - N/A Snow Light Snow
3:53 AM 30.0 °F 23.2 °F 28.0 °F 92% 29.65 in 4.0 mi North 6.9 mph - N/A Snow Light Snow
4:53 AM 30.9 °F 26.2 °F 27.0 °F 85% 29.65 in 10.0 mi NNW 4.6 mph - N/A   Overcast
5:53 AM 30.9 °F 26.2 °F 27.0 °F 85% 29.62 in 9.0 mi NNE 4.6 mph - N/A   Overcast
6:00 AM 30.2 °F 25.4 °F 28.4 °F 93% 29.62 in 10.0 mi North 4.6 mph - N/A   Overcast
6:45 AM 30.2 °F 23.4 °F 28.4 °F 93% 29.60 in 6.0 mi North 6.9 mph - N/A Snow Light Snow
6:53 AM 30.9 °F 25.2 °F 28.0 °F 89% 29.60 in 2.5 mi North 5.8 mph - N/A Snow Light Snow
7:12 AM 30.2 °F 24.3 °F 28.4 °F 93% 29.60 in 3.0 mi NW 5.8 mph - N/A Snow Light Snow
7:21 AM 30.2 °F 25.4 °F 28.4 °F 93% 29.60 in 4.0 mi NW 4.6 mph - N/A Snow Light Snow
7:53 AM 30.9 °F 26.2 °F 28.9 °F 92% 29.59 in 3.0 mi NNW 4.6 mph - N/A Snow Light Snow
8:01 AM 30.2 °F 25.4 °F 28.4 °F 93% 29.59 in 1.8 mi NW 4.6 mph - N/A Snow Light Snow
8:28 AM 30.2 °F 24.3 °F 28.4 °F 93% 29.59 in 0.8 mi WNW 5.8 mph - N/A Snow Light Snow
8:39 AM 30.2 °F 24.3 °F 28.4 °F 93% 29.59 in 0.8 mi WNW 5.8 mph - N/A Snow Light Snow
8:46 AM 30.2 °F 24.3 °F 28.4 °F 93% 29.59 in 0.8 mi WNW 5.8 mph - N/A Snow Light Snow
8:53 AM 30.9 °F 26.2 °F 28.9 °F 92% 29.59 in 0.8 mi WNW 4.6 mph - N/A Snow Light Snow
9:10 AM 32.0 °F 25.6 °F 30.2 °F 93% 29.59 in 1.0 mi NW 6.9 mph - N/A Snow Light Snow
9:35 AM 32.0 °F 25.6 °F 30.2 °F 93% 29.58 in 1.0 mi NW 6.9 mph - N/A Snow Light Snow
9:53 AM 32.0 °F 24.8 °F 30.0 °F 92% 29.58 in 1.8 mi NW 8.1 mph - N/A Snow Light Snow
10:03 AM 33.8 °F 27.7 °F 30.2 °F 87% 29.58 in 2.5 mi NW 6.9 mph - N/A Snow Light Snow
10:12 AM 33.8 °F 27.7 °F 30.2 °F 87% 29.58 in 2.5 mi NW 6.9 mph - N/A Snow Light Snow
10:53 AM 33.1 °F 28.7 °F 30.9 °F 92% 29.59 in 2.0 mi NW 4.6 mph - N/A Snow Light Snow
10:57 AM 33.8 °F 29.6 °F 30.2 °F 87% 29.59 in 1.8 mi NW 4.6 mph - N/A Snow Light Snow
11:05 AM 33.8 °F 28.6 °F 30.2 °F 87% 29.59 in 1.0 mi NW 5.8 mph - N/A Snow Light Snow
11:21 AM 33.8 °F 28.6 °F 30.2 °F 87% 29.59 in 1.0 mi NW 5.8 mph - N/A Snow Light Snow
11:53 AM 34.0 °F 27.2 °F 30.9 °F 89% 29.58 in 1.5 mi NW 8.1 mph - N/A Snow Light Snow
12:00 PM 33.8 °F 25.8 °F 30.2 °F 87% 29.58 in 1.0 mi NW 10.4 mph - 0.01 in Snow Light Snow
12:07 PM 33.8 °F 26.4 °F 30.2 °F 87% 29.57 in 1.0 mi NW 9.2 mph - 0.01 in Snow Light Snow
12:27 PM 33.8 °F 27.7 °F 30.2 °F 87% 29.56 in 3.0 mi NW 6.9 mph 17.3 mph 0.03 in Snow Light Snow
12:38 PM 35.6 °F 29.9 °F 30.2 °F 81% 29.55 in 9.0 mi NW 6.9 mph - 0.05 in Snow Light Snow
12:53 PM 37.0 °F 31.6 °F 30.9 °F 79% 29.54 in 10.0 mi WNW 6.9 mph - 0.08 in   Overcast
1:53 PM 41.0 °F 33.9 °F 27.0 °F 57% 29.50 in 10.0 mi NW 12.7 mph 18.4 mph 0.14 in   Overcast
2:53 PM 41.0 °F 33.9 °F 25.0 °F 53% 29.50 in 10.0 mi NW 12.7 mph 20.7 mph 0.14 in   Overcast
3:53 PM 43.0 °F 36.4 °F 25.0 °F 49% 29.52 in 10.0 mi NW 12.7 mph 20.7 mph 0.07 in   Clear
4:53 PM 42.1 °F 36.1 °F 26.1 °F 53% 29.57 in 10.0 mi NW 10.4 mph 23.0 mph 0.07 in   Clear
5:53 PM 39.9 °F 33.9 °F 28.0 °F 63% 29.60 in 10.0 mi NNW 9.2 mph - 0.04 in   Clear
6:53 PM 39.0 °F 32.3 °F 27.0 °F 62% 29.62 in 10.0 mi WNW 10.4 mph - 0.01 in   Clear
7:53 PM 39.0 °F 30.6 °F 25.0 °F 57% 29.65 in 10.0 mi WNW 15.0 mph 23.0 mph 0.02 in   Clear
8:53 PM 39.0 °F 31.8 °F 21.0 °F 49% 29.65 in 10.0 mi NW 11.5 mph - 0.01 in   Clear
9:53 PM 37.0 °F 31.0 °F 21.9 °F 54% 29.67 in 10.0 mi WSW 8.1 mph - N/A   Clear
10:53 PM 36.0 °F 32.1 °F 19.9 °F 52% 29.67 in 10.0 mi SSW 4.6 mph - N/A   Clear
11:53 PM 34.0 °F - 19.0 °F 54% 29.66 in 10.0 mi Calm Calm - N/A   Clear